Regional Weather Roundup
Issued by NWS

Home | Current Version | Previous Version | Text Only | Print | Product List | Glossary On
Versions: 1 2 3 4 5 6 7 8 9 10 11 12 13 14 15 16 17 18 19 20 21 22 23 24 25 26 27 28 29 30 31 32 33 34 35 36 37 38 39 40 41 42 43 44 45 46 47 48 49 50
000
ASUS42 KFFC 261310
RWRGA
WEATHER ROUNDUP FOR GEORGIA
NATIONAL WEATHER SERVICE PEACHTREE CITY GA
900 AM EDT TUE SEP 26 2017

NOTE: "FAIR" INDICATES FEW OR NO CLOUDS BELOW 12,000 FEET WITH NO
SIGNIFICANT WEATHER AND/OR OBSTRUCTIONS TO VISIBILITY.

* = USE WITH CAUTION. THE STATIONS MARKED WITH AN ASTERISK MAY NOT
REPORT WEATHER SUCH AS PRECIPITATION, FOG, OR THUNDER AND ARE NOT
QUALITY CONTROLLED BY NWS.

THE REMARK "TC" DENOTES TEMPERATURE READING IN DEGREES CELSIUS.

GAZ001>058-261400-
NORTH GEORGIA

CITY           SKY/WX    TMP DP  RH WIND       PRES   REMARKS
ATLANTA        SUNNY     75  63  66 NE10      30.02R
ATHENS         SUNNY     70  65  84 CALM      30.01R
CHAMBLEE       SUNNY     71  64  78 CALM      30.02R
PEACHTREE CITY SUNNY     67  65  93 CALM      30.02R
ROME           SUNNY     67  65  93 CALM      30.02R
WEST ATLANTA   SUNNY     69  66  90 CALM      30.02R
GAINESVILLE    SUNNY     71  64  78 N3        30.05R
CARTERSVILLE   MOSUNNY   65  65 100 CALM      30.04R


CITY           SKY/WX    TMP DP  RH WIND       PRES   REMARKS
DALTON*        SUNNY     63  63 100 CALM      30.05R
LAWRENCEVILLE* SUNNY     70  64  83 CALM      30.03R
MARIETTA       SUNNY     70  63  77 SE1       30.03R
KENNESAW*      SUNNY     69  63  81 CALM      30.04R
CANTON*        SUNNY     66  64  94 CALM      30.05R
$$

GAZ059>098-102>109-261400-
CENTRAL GEORGIA

CITY           SKY/WX    TMP DP  RH WIND       PRES   REMARKS
AUGUSTA-BUSH   SUNNY     73  66  78 NW5       29.96R
AUGUSTA-DANIEL SUNNY     75  66  73 N7        29.97R
COLUMBUS       SUNNY     73  63  70 CALM      29.99R
MACON          SUNNY     71  66  84 MISG      29.98R
ROBINS AFB     SUNNY     69  65  88 N6        29.97S


CITY           SKY/WX    TMP DP  RH WIND       PRES   REMARKS
LAGRANGE*      SUNNY     69  68  98 CALM      30.01S
SYLVANIA*      SUNNY     73  70  91 N3        29.95S
MILLEDGEVILLE* SUNNY     72  70  94 CALM      29.99S
$$

GAZ099>101-110>166-261400-
SOUTH GEORGIA

CITY           SKY/WX    TMP DP  RH WIND       PRES   REMARKS
SAVANNAH       MOSUNNY   75  68  78 NW8       29.93S
VALDOSTA       SUNNY     72  67  84 CALM      29.95R
ALMA           SUNNY     73  66  78 NW3       29.95R
ST SIMONS      SUNNY     76  70  82 NW7       29.92R
FT STEWART     SUNNY     74  67  78 N7        29.91S
ALBANY         MOSUNNY   72  66  81 CALM      29.98R
HUNTER AFB     SUNNY     75  68  79 N6        29.90S
MOODY AFB      SUNNY     73  67  82 CALM      29.94R
BRUNSWICK      SUNNY     72  68  88 NW3       29.94R


CITY           SKY/WX    TMP DP  RH WIND       PRES   REMARKS
BAINBRIDGE*    SUNNY     72  68  88 CALM      29.96R
MOULTRIE*      MOSUNNY   72  64  78 CALM      29.97R
VIDALIA*       SUNNY     73  70  88 CALM      29.95S
WAYCROSS*      SUNNY     72  68  88 CALM      29.95R
DOUGLAS*       SUNNY     70  64  83 CALM      29.97S
$$




USA.gov is the U.S. government's official web portal to all federal, state and local government web resources and services.